Weather History for Gallivare, Sweden

Change the Weather History Date:

Thursday, February 7, 2013

  Actual Average Record
Temperature  
Mean Temperature -7 °F -  
Max Temperature 0 °F - - ()
Min Temperature -16 °F - - ()
Degree Days  
Heating Degree Days 72    
Moisture  
Dew Point -14 °F    
Average Humidity 81    
Maximum Humidity 92    
Minimum Humidity 77    
Precipitation  
Precipitation 0.00 in - - ()
Sea Level Pressure  
Sea Level Pressure 29.91 in    
Wind  
Wind Speed 5 mph ()    
Max Wind Speed 8 mph    
Max Gust Speed -    
Visibility 5.1 miles    
Events Snow    
T = Trace of Precipitation, MM = Missing Value Source: Averaged Metar Reports

Daily Weather History Graph

Daily Weather History Graph

Search for Another Location

Airport:

Trip Planner

Search our weather history database for the weather conditions in past years. The results will help you decide how hot, cold, wet, or windy it might be!

Date:

Astronomy

Feb. 07, 2013 Rise Set
Actual Time 8:20 AM CET 3:22 PM CET
Civil Twilight 7:17 AM CET 4:26 PM CET
Nautical Twilight 6:12 AM CET 5:31 PM CET
Astronomical Twilight 5:10 AM CET 6:33 PM CET
Moon 6:51 AM CET (2/7) 11:21 AM CET (2/7)
Length of Visible Light 9h 08m
Length of Day
7h 02m
Waning Crescent, 11% of the Moon is Illuminated
Feb 7
Waning Crescent
Feb 10
New
Feb 17
First Quarter
Feb 25
Full
Mar 4
Last Quarter

Hourly Weather History & Observations

Time (CET) Temp. Windchill Dew Point Humidity Pressure Visibility Wind Dir Wind Speed Gust Speed Precip Events Conditions
12:20 AM -2.2 °F -12.5 °F -5.8 °F 85% 29.83 in 3.1 mi NW 4.6 mph - N/A Snow Light Snow
12:50 AM -2.2 °F -14.2 °F -4.0 °F 92% 29.83 in 6.2 mi NNW 5.8 mph - N/A Snow Light Snow
1:20 AM -0.4 °F -13.4 °F -4.0 °F 85% 29.83 in 6.2 mi WNW 6.9 mph - N/A Snow Light Snow
1:50 AM -0.4 °F -12.0 °F -4.0 °F 85% 29.83 in 6.2 mi NW 5.8 mph - N/A Snow Light Snow
2:20 AM -2.2 °F -14.2 °F -4.0 °F 92% 29.83 in 6.2 mi WNW 5.8 mph - N/A   Ice Crystals
2:50 AM -2.2 °F -14.2 °F -5.8 °F 85% 29.83 in 3.1 mi WNW 5.8 mph - N/A Snow Snow Grains
3:20 AM -2.2 °F -14.2 °F -7.6 °F 78% 29.83 in 6.2 mi NNW 5.8 mph - N/A Snow Light Snow
3:50 AM -5.8 °F -16.7 °F -9.4 °F 84% 29.83 in 6.2 mi NNW 4.6 mph - N/A Snow Snow Grains
4:20 AM -7.6 °F -20.6 °F -11.2 °F 84% 29.86 in 6.2 mi NNW 5.8 mph - N/A Snow Snow Grains
4:50 AM -9.4 °F -18.6 °F -13.0 °F 84% 29.86 in 6.2 mi NW 3.5 mph - N/A   Partly Cloudy
5:20 AM -13.0 °F -22.7 °F -16.6 °F 84% 29.86 in 6.2 mi West 3.5 mph - N/A   Partly Cloudy
5:50 AM -13.0 °F -25.1 °F -18.4 °F 77% 29.86 in - NW 4.6 mph - N/A   Clear
6:20 AM -13.0 °F -27.0 °F -16.6 °F 84% 29.86 in - NW 5.8 mph - N/A   Clear
6:50 AM -13.0 °F -25.1 °F -18.4 °F 77% 29.86 in - West 4.6 mph - N/A   Clear
7:20 AM -14.8 °F -24.8 °F -20.2 °F 77% 29.86 in - West 3.5 mph - N/A   Clear
7:50 AM -14.8 °F -27.2 °F -20.2 °F 77% 29.89 in - West 4.6 mph - N/A   Clear
8:50 AM -14.8 °F -27.2 °F -20.2 °F 77% 29.89 in - WNW 4.6 mph - N/A   Clear
9:20 AM -14.8 °F -24.8 °F -20.2 °F 77% 29.89 in - WSW 3.5 mph - N/A   Clear
9:50 AM -11.2 °F -23.0 °F -14.8 °F 84% 29.89 in - West 4.6 mph - N/A   Clear
10:20 AM -11.2 °F -23.0 °F -14.8 °F 84% 29.89 in - West 4.6 mph - N/A   Clear
10:50 AM -9.4 °F -20.9 °F -14.8 °F 77% 29.89 in - NW 4.6 mph - N/A   Clear
11:20 AM -7.6 °F -20.6 °F -13.0 °F 77% 29.92 in - NW 5.8 mph - N/A   Clear
11:50 AM -9.4 °F -18.6 °F -13.0 °F 84% 29.92 in - West 3.5 mph - N/A   Clear
12:20 PM -7.6 °F -16.5 °F -13.0 °F 77% 29.92 in - West 3.5 mph - N/A   Clear
2:50 PM -5.8 °F -14.5 °F -9.4 °F 84% 29.92 in - NW 3.5 mph - N/A   Clear
3:20 PM -5.8 °F -18.4 °F -9.4 °F 84% 29.92 in - NW 5.8 mph - N/A   Clear
3:50 PM -5.8 °F -19.9 °F -11.2 °F 77% 29.92 in - NW 6.9 mph - N/A   Clear
4:50 PM -7.6 °F -20.6 °F -13.0 °F 77% 29.95 in - WNW 5.8 mph - N/A   Clear
5:20 PM -9.4 °F -20.9 °F -14.8 °F 77% 29.95 in - WNW 4.6 mph - N/A   Clear
5:50 PM -9.4 °F -22.7 °F -13.0 °F 84% 29.95 in - NW 5.8 mph - N/A   Clear
6:20 PM -9.4 °F -22.7 °F -14.8 °F 77% 29.95 in - WNW 5.8 mph - N/A   Clear
6:50 PM -9.4 °F -22.7 °F -14.8 °F 77% 29.95 in - NW 5.8 mph - N/A   Clear
7:20 PM -11.2 °F -23.0 °F -14.8 °F 84% 29.98 in - WNW 4.6 mph - N/A   Clear
7:50 PM -11.2 °F -23.0 °F -14.8 °F 84% 29.98 in - NW 4.6 mph - N/A   Clear
8:20 PM -14.8 °F -27.2 °F -20.2 °F 77% 29.98 in - NW 4.6 mph - N/A   Clear
8:50 PM -13.0 °F -30.0 °F -16.6 °F 84% 29.98 in - NW 8.1 mph - N/A   Clear
9:20 PM -13.0 °F -27.0 °F -18.4 °F 77% 29.98 in - NW 5.8 mph - N/A   Clear
9:50 PM -11.2 °F -24.8 °F -16.6 °F 77% 29.98 in 5.0 mi WNW 5.8 mph - N/A Snow Light Snow
10:20 PM -13.0 °F -25.1 °F -16.6 °F 84% 29.98 in 3.1 mi NW 4.6 mph - N/A Snow Light Snow
10:50 PM -13.0 °F -27.0 °F -16.6 °F 84% 29.98 in 3.7 mi WNW 5.8 mph - N/A Snow Light Snow
11:20 PM -13.0 °F -25.1 °F -18.4 °F 77% 29.98 in 6.2 mi West 4.6 mph - N/A Snow Light Snow
11:50 PM -16.6 °F -31.3 °F -20.2 °F 84% 30.01 in 1.2 mi West 5.8 mph - N/A Snow Light Snow